Waarnemingen

Advertentie
Mijn weer
Limoges, Frankrijk (7434): temperatuur & dauwpunt: 18.08.2019 00:00:00 - 24.08.2019 00:00:00 (CEST)Limoges, Frankrijk (7434): temperatuur 5cm: 18.08.2019 00:00:00 - 24.08.2019 00:00:00 (CEST)Limoges, Frankrijk (7434): temperatuur -20cm & temperatuur -100cm: 18.08.2019 00:00:00 - 24.08.2019 00:00:00 (CEST)Limoges, Frankrijk (7434): windsnelheid & windstoten: 18.08.2019 00:00:00 - 24.08.2019 00:00:00 (CEST)Limoges, Frankrijk (7434): windrichting: 18.08.2019 00:00:00 - 24.08.2019 00:00:00 (CEST)Limoges, Frankrijk (7434): luchtdruk: 18.08.2019 00:00:00 - 24.08.2019 00:00:00 (CEST)Limoges, Frankrijk (7434): zicht: 18.08.2019 00:00:00 - 24.08.2019 00:00:00 (CEST)Limoges, Frankrijk (7434): Zonneschijnduur: 18.08.2019 00:00:00 - 24.08.2019 00:00:00 (CEST)Limoges, Frankrijk (7434): neerslag: 18.08.2019 00:00:00 - 24.08.2019 00:00:00 (CEST)
Datum & Tijd tt [°C] td [°C] tt 5cm [°C] tt -20cm [°C] tt -100cm [°C] ff [km/u] ff [kn] fx [km/u] fx [kn] dd ppp [hPa] vv [km] sd [min] rr [mm]
24.08.2019 00:00:00 23,0 5,4 20,6 21,5 19,6 14 7 22 12 ONO 1018,3 36 0 0,0
23.08.2019 23:00:00 23,9 5,3 21,4 21,5 19,6 14 7 20 11 NO 1018,0 36 0 0,0
23.08.2019 22:00:00 25,2 5,9 22,2 21,5 19,6 15 8 22 12 NNO 1017,8 36 0 0,0
23.08.2019 21:00:00 26,6 6,1 22,9 21,3 19,6 10 6 16 8 N 1017,4 38 7 0,0
23.08.2019 20:00:00 29,3 5,4 28,7 21,2 19,6 6 3 9 5 NNO 1016,9 37 60 0,0
23.08.2019 19:00:00 30,6 5,1 32,6 20,9 19,6 3 2 13 7 NNW 1016,9 36 60 0,0
23.08.2019 18:00:00 30,9 3,8 33,7 20,8 19,6 6 3 19 10 WNW 1017,1 22 60 0,0
23.08.2019 17:00:00 30,7 5,2 35,0 20,6 19,6 7 4 20 11 NNW 1017,5 23 60 0,0
23.08.2019 16:00:00 30,6 5,1 36,9 20,4 19,6 10 5 21 12 Z 1017,9 18 60 0,0
23.08.2019 15:00:00 29,7 5,7 35,9 20,2 19,6 9 5 25 13 NNO 1018,4 14 60 0,0
23.08.2019 14:00:00 28,9 7,5 34,5 20,2 19,6 9 5 29 15 O 1018,9 13 60 0,0
23.08.2019 13:00:00 27,6 4,6 32,2 20,1 19,6 10 5 22 12 O 1019,7 16 60 0,0
23.08.2019 12:00:00 26,3 8,3 30,5 20,1 19,6 13 7 26 14 O 1020,1 7 60 0,0
23.08.2019 11:00:00 24,0 8,8 27,8 20,1 19,6 15 8 26 14 ONO 1020,7 12 60 0,0
23.08.2019 10:00:00 22,2 9,0 21,9 20,2 19,6 14 7 23 12 O 1020,9 14 60 0,0
23.08.2019 09:00:00 20,2 8,8 18,7 20,3 19,6 12 6 19 11 ONO 1021,4 18 60 0,0
23.08.2019 08:00:00 17,8 7,5 15,3 20,4 19,6 14 7 18 10 NO 1021,8 19 13 0,0
23.08.2019 07:00:00 17,4 6,0 15,3 20,5 19,6 10 6 15 8 ONO 1021,8 34 0 0,0
23.08.2019 06:00:00 17,7 5,6 15,6 20,6 19,6 9 5 19 11 ONO 1021,6 34 0 0,0
23.08.2019 05:00:00 18,6 5,4 16,3 20,7 19,6 11 6 22 12 ONO 1021,7 35 0 0,0
23.08.2019 04:00:00 18,9 5,3 17,0 20,7 19,6 15 8 29 15 ONO 1021,9 34 0 0,0
23.08.2019 03:00:00 19,6 4,9 17,7 20,8 19,6 20 11 35 19 ONO 1021,9 35 0 0,0
23.08.2019 02:00:00 19,9 5,2 17,6 20,9 19,6 16 9 24 13 ONO 1022,0 35 0 0,0
23.08.2019 01:00:00 20,3 4,7 18,1 20,9 19,6 14 8 24 13 ONO 1022,3 36 0 0,0
23.08.2019 00:00:00 21,8 4,8 20,0 20,9 19,6 15 8 22 12 NO 1022,1 35 0 0,0
22.08.2019 23:00:00 22,4 4,9 20,7 20,9 19,6 16 9 25 13 NNO 1022,0 35 0 0,0
22.08.2019 22:00:00 23,2 4,7 20,8 20,8 19,6 16 9 25 14 NNO 1022,0 35 0 0,0
22.08.2019 21:00:00 23,7 6,0 21,0 20,8 19,6 13 7 22 12 NNO 1021,3 37 9 0,0
22.08.2019 20:00:00 25,7 6,3 25,2 20,6 19,6 14 8 26 14 NNO 1020,9 23 60 0,0
22.08.2019 19:00:00 27,2 6,6 29,6 20,4 19,6 16 9 27 15 NNO 1020,5 12 60 0,0
22.08.2019 18:00:00 27,7 7,0 30,0 20,2 19,6 19 10 34 18 NNO 1020,7 9 60 0,0
22.08.2019 17:00:00 27,6 5,8 30,6 20,1 19,6 19 10 32 17 NO 1020,7 8 60 0,0
22.08.2019 16:00:00 27,3 6,7 32,2 19,9 19,6 18 10 37 20 NO 1021,2 7 60 0,0
22.08.2019 15:00:00 26,2 7,2 31,2 19,8 19,6 19 10 36 19 NO 1021,7 6 60 0,0
22.08.2019 14:00:00 25,2 8,2 29,9 19,7 19,6 19 10 37 20 NNO 1022,1 4,7 60 0,0
22.08.2019 13:00:00 24,4 8,4 28,0 19,7 19,6 18 10 39 21 ONO 1022,4 6 60 0,0
22.08.2019 12:00:00 23,4 7,9 26,9 19,7 19,6 29 16 43 23 ONO 1022,8 6 60 0,0
22.08.2019 11:00:00 21,1 9,7 24,0 19,8 19,6 21 12 35 19 ONO 1023,0 8 60 0,0
22.08.2019 10:00:00 19,7 10,7 19,5 19,8 19,6 23 12 37 20 NO 1023,3 22 60 0,0
22.08.2019 09:00:00 17,8 10,7 16,6 19,9 19,6 20 11 33 18 ONO 1023,2 38 60 0,0
22.08.2019 08:00:00 15,8 10,1 13,7 20,0 19,7 12 6 18 10 NO 1023,3 25 15 0,0
22.08.2019 07:00:00 15,9 8,9 14,1 20,1 19,7 14 7 22 12 NO 1022,8 33 0 0,0
22.08.2019 06:00:00 16,7 8,4 14,6 20,1 19,7 12 6 20 11 NNO 1022,6 33 0 0,0
22.08.2019 05:00:00 16,8 8,0 14,6 20,2 19,7 14 7 20 11 NNO 1022,6 34 0 0,0
22.08.2019 04:00:00 16,5 6,9 14,1 20,3 19,7 16 9 19 10 NO 1022,8 35 0 0,0
22.08.2019 03:00:00 16,6 7,0 14,3 20,4 19,7 14 8 18 10 NO 1022,7 33 0 0,0
22.08.2019 02:00:00 16,9 7,5 15,2 20,5 19,7 13 7 29 16 NO 1023,1 33 0 0,0
22.08.2019 01:00:00 17,8 7,2 15,9 20,5 19,7 18 10 31 17 NNO 1023,1 34 0 0,0
22.08.2019 00:00:00 18,4 6,6 16,4 20,5 19,7 17 9 28 15 N 1023,2 34 0 0,0
21.08.2019 23:00:00 19,3 6,4 16,8 20,6 19,7 16 9 24 13 NNO 1022,8 34 0 0,0
21.08.2019 22:00:00 20,0 6,3 16,9 20,5 19,7 11 6 21 11 NNO 1022,6 35 0 0,0
21.08.2019 21:00:00 20,7 5,9 18,1 20,4 19,7 10 5 16 8 NO 1022,0 35 12 0,0
21.08.2019 20:00:00 22,7 5,6 22,5 20,3 19,7 11 6 33 18 NO 1021,5 27 60 0,0
21.08.2019 19:00:00 23,8 4,7 24,6 20,2 19,7 17 9 36 20 ONO 1021,3 10 54 0,0
21.08.2019 18:00:00 24,4 4,7 26,8 20,1 19,7 23 12 39 21 O 1021,5 5 60 0,0
21.08.2019 17:00:00 24,2 5,5 27,2 20,0 19,7 20 11 38 21 NO 1021,6 5 60 0,0
21.08.2019 16:00:00 24,0 6,3 28,0 19,9 19,7 24 13 43 23 NO 1022,0 8 60 0,0
21.08.2019 15:00:00 23,1 6,8 26,7 19,8 19,7 21 11 38 20 NO 1022,5 12 60 0,0
21.08.2019 14:00:00 22,1 6,7 25,2 19,8 19,7 22 12 39 21 NO 1023,1 6 48 0,0
21.08.2019 13:00:00 21,0 6,1 23,9 19,8 19,7 24 13 44 24 ONO 1023,6 9 46 0,0
21.08.2019 12:00:00 20,8 6,3 22,8 19,8 19,7 29 16 48 26 NO 1024,2 12 51 0,0
21.08.2019 11:00:00 19,7 7,4 20,6 19,9 19,7 24 13 40 22 ONO 1024,6 14 58 0,0
21.08.2019 10:00:00 18,2 8,2 18,4 20,0 19,8 21 11 33 18 ONO 1025,0 19 60 0,0
21.08.2019 09:00:00 16,5 8,7 15,3 20,0 19,7 16 9 31 17 ONO 1025,5 22 60 0,0
21.08.2019 08:00:00 14,6 8,3 12,0 20,1 19,7 15 8 22 12 NO 1025,5 21 16 0,0
21.08.2019 07:00:00 13,8 8,0 10,6 20,2 19,7 13 7 18 10 NNO 1025,5 46 0 0,0
21.08.2019 06:00:00 12,3 7,4 9,9 20,4 19,7 6 3 10 5 NO 1025,8 48 0 0,0
21.08.2019 05:00:00 12,9 7,1 10,8 20,5 19,7 5 3 12 6 NO 1025,9 39 0 0,0
21.08.2019 04:00:00 13,2 7,0 11,4 20,6 19,7 5 3 12 6 ONO 1025,9 37 0 0,0
21.08.2019 03:00:00 13,9 6,7 12,0 20,6 19,7 7 4 11 6 NO 1025,8 38 0 0,0
21.08.2019 02:00:00 15,1 6,6 12,6 20,7 19,8 5 3 12 6 ONO 1026,0 41 0 0,0
21.08.2019 01:00:00 16,4 6,5 13,8 20,7 19,8 8 4 13 7 NO 1025,5 43 0 0,0
21.08.2019 00:00:00 16,9 6,7 14,3 20,8 19,7 8 4 13 7 NO 1025,5 44 0 0,0
20.08.2019 23:00:00 17,5 7,2 15,0 20,8 19,8 10 5 13 7 NO 1025,4 42 0 0,0
20.08.2019 22:00:00 18,7 7,5 15,9 20,7 19,8 10 5 18 10 NNO 1025,0 42 0 0,0
20.08.2019 21:00:00 19,7 7,7 16,7 20,7 19,8 8 4 15 8 NO 1024,4 42 13 0,0
20.08.2019 20:00:00 21,8 7,2 21,6 20,5 19,8 8 4 19 11 ONO 1023,8 44 60 0,0
20.08.2019 19:00:00 22,4 6,2 22,7 20,4 19,8 5 3 19 10 N 1023,4 40 50 0,0
20.08.2019 18:00:00 22,4 6,2 25,1 20,3 19,8 10 6 23 13 NNO 1023,4 56 54 0,0
20.08.2019 17:00:00 22,3 6,9 - - - 9 5 28 15 N 1023,3 26 - -
20.08.2019 16:00:00 21,9 7,3 24,1 20,1 19,8 6 3 46 25 NO 1023,1 20 30 0,0
20.08.2019 15:00:00 21,0 6,9 22,7 20,0 19,8 7 4 23 13 N 1023,4 34 21 0,0
20.08.2019 14:00:00 21,4 8,0 22,9 20,0 19,8 12 7 23 12 NO 1023,3 39 23 0,0
20.08.2019 13:00:00 20,7 8,0 22,0 20,0 19,8 14 8 25 14 NNO 1023,4 39 44 0,0
20.08.2019 12:00:00 19,2 7,9 20,5 20,0 19,8 14 8 23 13 NO 1023,0 44 11 0,0
20.08.2019 11:00:00 17,6 9,7 18,0 20,1 19,8 10 5 21 11 NNO 1023,0 30 0 0,0
20.08.2019 10:00:00 16,2 9,1 15,4 20,2 19,8 13 7 23 13 N 1022,9 26 0 0,0
20.08.2019 09:00:00 15,3 8,8 14,1 20,2 19,8 13 7 26 14 N 1022,4 38 0 0,0
20.08.2019 08:00:00 14,6 9,0 13,5 20,3 19,8 14 8 24 13 N 1021,7 36 0 0,0
20.08.2019 07:00:00 14,3 9,5 13,3 20,4 19,8 10 5 23 13 N 1021,8 34 0 0,0
20.08.2019 06:00:00 14,2 9,6 13,4 20,5 19,8 12 7 23 13 N 1021,6 35 0 0,0
20.08.2019 05:00:00 14,4 9,6 13,5 20,6 19,8 12 7 24 13 N 1021,5 34 0 0,0
20.08.2019 04:00:00 14,8 9,2 13,7 20,7 19,8 11 6 22 12 N 1021,2 29 0 0,0
20.08.2019 03:00:00 15,4 8,8 13,3 20,8 19,8 10 5 22 12 N 1021,4 37 0 0,0
20.08.2019 02:00:00 15,3 8,5 13,6 20,8 19,8 11 6 22 12 N 1021,7 39 0 0,0
20.08.2019 01:00:00 15,5 8,9 13,7 20,9 19,8 11 6 22 12 N 1021,8 39 0 0,0
20.08.2019 00:00:00 15,4 9,1 12,2 21,0 19,8 11 6 19 10 NNW 1022,1 37 0 0,0
19.08.2019 23:00:00 16,1 7,8 12,5 20,9 19,8 10 6 16 9 NNW 1022,1 39 0 0,0
19.08.2019 22:00:00 17,0 6,8 13,4 20,9 19,8 5 3 7 4 NW 1021,7 43 0 0,0
19.08.2019 21:00:00 17,8 6,9 14,9 20,8 19,8 6 3 8 4 NNW 1020,8 43 7 0,0
19.08.2019 20:00:00 18,8 7,6 18,3 20,7 19,8 4 2 16 9 NNW 1020,4 40 5 0,0
19.08.2019 19:00:00 20,5 7,1 22,5 20,6 19,8 8 4 20 11 NNW 1020,0 50 53 0,0
19.08.2019 18:00:00 19,7 7,7 22,2 20,5 19,8 5 3 22 12 NO 1020,2 34 38 0,0
19.08.2019 17:00:00 20,0 8,0 22,8 20,4 19,8 8 4 22 12 NW 1020,4 33 23 0,0
19.08.2019 16:00:00 20,1 7,8 24,9 20,2 19,8 12 7 23 12 NW 1020,4 16 45 0,0
19.08.2019 15:00:00 19,5 6,9 23,1 20,2 19,8 11 6 30 16 WNW 1020,5 42 35 0,0
19.08.2019 14:00:00 19,3 8,6 23,6 20,1 19,8 9 5 21 12 ZW 1020,5 29 37 0,0
19.08.2019 13:00:00 17,5 8,6 20,9 20,1 19,8 5 3 16 9 NW 1020,7 35 20 0,0
19.08.2019 12:00:00 17,3 8,4 23,9 20,2 19,8 8 4 16 9 W 1020,8 20 56 0,0
19.08.2019 11:00:00 15,7 8,4 17,4 20,2 19,8 6 4 16 9 NW 1020,8 27 54 0,0
19.08.2019 10:00:00 13,6 11,1 16,1 20,3 19,8 6 3 12 6 N 1020,9 26 23 0,0
19.08.2019 09:00:00 12,4 11,5 12,8 20,4 19,8 3 2 8 4 ZZW 1021,1 20 46 0,2
19.08.2019 08:00:00 11,4 11,2 7,1 20,6 19,8 3 2 6 4 W 1020,8 7 19 0,0
19.08.2019 07:00:00 10,7 10,4 6,5 20,7 19,9 4 2 6 3 W 1020,5 0,6 0 0,0
19.08.2019 06:00:00 10,8 10,3 6,9 20,8 19,8 3 2 6 3 W 1020,1 9 0 0,0
19.08.2019 05:00:00 11,3 10,5 8,0 20,8 19,8 2 1 11 6 NW 1019,7 11 0 0,0
19.08.2019 04:00:00 12,2 11,3 10,6 20,9 19,8 6 4 13 7 WNW 1019,3 20 0 0,0
19.08.2019 03:00:00 12,7 11,4 11,2 21,0 19,8 8 4 15 8 W 1019,1 23 0 0,0
19.08.2019 02:00:00 14,0 12,0 13,0 21,0 19,8 8 5 22 12 WNW 1018,8 27 0 0,0
19.08.2019 01:00:00 15,0 12,9 14,3 21,1 19,8 10 5 21 11 W 1018,5 27 0 0,0
19.08.2019 00:00:00 15,4 13,1 14,9 21,1 19,8 10 6 23 12 W 1017,8 33 0 0,0
18.08.2019 23:00:00 16,0 13,8 15,2 21,2 19,8 8 4 18 10 WNW 1016,1 38 0 0,0
18.08.2019 22:00:00 16,3 14,0 15,5 21,2 19,8 13 7 31 17 W 1015,7 39 0 0,0
18.08.2019 21:00:00 16,9 13,4 16,3 21,1 19,8 14 8 30 16 NNW 1013,7 49 0 0,0
18.08.2019 20:00:00 18,2 14,5 18,0 21,1 19,8 10 6 33 18 W 1014,3 46 0 0,0
18.08.2019 19:00:00 19,3 15,6 20,1 21,0 19,8 22 12 38 21 W 1014,2 18 0 0,0
18.08.2019 18:00:00 21,2 17,4 23,2 20,9 19,8 17 9 34 18 W 1012,9 31 10 0,0
18.08.2019 17:00:00 22,0 18,0 23,7 20,9 19,8 18 10 30 16 W 1012,3 38 4 0,0
18.08.2019 16:00:00 23,2 17,4 25,2 20,8 19,8 14 8 35 19 W 1011,9 35 5 0,0
18.08.2019 15:00:00 23,4 17,2 26,7 20,8 19,8 17 9 29 15 ZW 1011,6 44 3 0,0
18.08.2019 14:00:00 22,4 17,5 23,8 20,7 19,8 13 7 23 13 WZW 1012,0 33 2 0,0
18.08.2019 13:00:00 21,3 17,5 23,2 20,7 19,8 11 6 26 14 WZW 1012,4 31 0 0,0
18.08.2019 12:00:00 20,8 17,4 21,6 20,7 19,8 15 8 30 16 W 1011,9 34 0 0,0
18.08.2019 11:00:00 20,5 17,1 22,4 20,8 19,8 14 7 24 13 W 1011,7 41 0 0,0
18.08.2019 10:00:00 20,2 17,4 21,9 20,8 19,8 9 5 17 9 WZW 1011,2 37 4 0,0
18.08.2019 09:00:00 19,2 17,3 19,3 20,9 19,8 6 3 14 8 ZW 1010,4 33 33 0,0
18.08.2019 08:00:00 18,3 16,8 15,7 21,0 19,9 8 4 14 8 WZW 1009,6 34 21 0,0
18.08.2019 07:00:00 17,6 16,3 14,3 21,0 19,8 6 3 13 7 W 1009,6 24 0 0,0
18.08.2019 06:00:00 17,4 16,3 14,4 21,1 19,8 3 1 6 3 ZZW 1009,9 25 0 0,0
18.08.2019 05:00:00 17,2 16,2 15,7 21,2 19,8 4 2 17 9 NNO 1010,5 10 0 0,0
18.08.2019 04:00:00 18,3 17,5 14,7 21,3 19,8 6 3 11 6 WZW 1011,0 26 0 0,0
18.08.2019 03:00:00 18,0 16,8 15,3 21,3 19,8 4 2 8 4 Z 1011,2 23 0 0,0
18.08.2019 02:00:00 18,7 17,5 15,6 21,4 19,9 7 4 11 6 ZZW 1011,5 30 0 0,0
18.08.2019 01:00:00 19,1 17,4 16,3 21,4 19,9 6 3 10 5 WZW 1011,9 33 0 0,0
18.08.2019 00:00:00 19,6 17,6 15,9 21,4 19,8 6 3 9 5 WZW 1012,1 34 0 0,0

tt = temperatuur
td = dauwpunt
tt 5cm = temperatuur 5cm
tt -20cm = temperatuur -20cm
tt -100cm = temperatuur -100cm
ff = windsnelheid
fx = windstoten
dd = windrichting
ppp = luchtdruk
vv = zicht
sd = Zonneschijnduur
rr = neerslag

Weerstations in de omgeving